Weather History for Reno - Stead, NV

Change the Weather History Date:

Tuesday, November 5, 2013

  Actual Average (KRNO) Record (KRNO)
Temperature  
Mean Temperature 34 °F 46 °F  
Max Temperature 53 °F 60 °F 77 °F (1980)
Min Temperature 15 °F 33 °F 9 °F (1935)
Degree Days  
Heating Degree Days 31 19  
Month to date heating degree days 89  
Since 1 July heating degree days 525  
Cooling Degree Days 0 0  
Month to date cooling degree days 0  
Year to date cooling degree days 839  
Moisture  
Dew Point 15 °F    
Average Humidity 50    
Maximum Humidity 80    
Minimum Humidity 21    
Precipitation  
Precipitation 0.00 in 0.02 in 0.46 in (1963)
Month to date precipitation 0.11  
Year to date precipitation 5.66  
Snow  
Snow 0.00 in 0.10 in 0.50 in (1920)
Month to date snowfall 0.3  
Since 1 July snowfall 0.7  
Since 1 September snowfall 0.7  
Snow Depth -    
Sea Level Pressure  
Sea Level Pressure 30.26 in    
Wind  
Wind Speed 3 mph (ENE)    
Max Wind Speed 8 mph    
Max Gust Speed -    
Visibility 10 miles    
Events Snow    
T = Trace of Precipitation, MM = Missing Value Source: NWS Daily Summary

Daily Weather History Graph

Daily Weather History Graph

Search for Another Location

Airport:

Trip Planner

Search our weather history database for the weather conditions in past years. The results will help you decide how hot, cold, wet, or windy it might be!

Date:

Astronomy

Nov. 05, 2013 Rise Set
Actual Time 6:32 AM PST 4:52 PM PST
Civil Twilight 6:04 AM PST 5:21 PM PST
Nautical Twilight 5:32 AM PST 5:53 PM PST
Astronomical Twilight 5:01 AM PST 6:24 PM PST
Moon 8:52 AM PST (11/5) 6:59 PM PST (11/5)
Length of Visible Light 11h 16m
Length of Day
10h 19m
Waxing Crescent, 7% of the Moon is Illuminated
Nov 5
Waxing Crescent
Nov 9
First Quarter
Nov 17
Full
Nov 25
Last Quarter
Dec 2
New

Hourly Weather History & Observations

Time (PST) Temp. Windchill Dew Point Humidity Pressure Visibility Wind Dir Wind Speed Gust Speed Precip Events Conditions
12:15 AM 23.0 °F 18.4 °F 14.0 °F 68% 30.19 in 10.0 mi SW 3.5 mph - N/A   Clear
12:35 AM 19.4 °F - 12.2 °F 74% 30.19 in 10.0 mi Calm Calm - N/A   Clear
12:55 AM 19.4 °F - 12.2 °F 74% 30.18 in 10.0 mi Calm Calm - N/A   Clear
1:15 AM 21.2 °F 16.4 °F 12.2 °F 68% 30.18 in 10.0 mi NNW 3.5 mph - N/A   Clear
1:35 AM 19.4 °F - 14.0 °F 80% 30.18 in 10.0 mi Calm Calm - N/A   Clear
1:55 AM 19.4 °F 14.3 °F 12.2 °F 74% 30.19 in 10.0 mi NNW 3.5 mph - N/A   Clear
2:15 AM 19.4 °F - 12.2 °F 74% 30.19 in 10.0 mi Calm Calm - N/A   Clear
2:35 AM 23.0 °F 17.0 °F 14.0 °F 68% 30.19 in 10.0 mi ESE 4.6 mph - N/A   Clear
2:55 AM 17.6 °F 12.3 °F 10.4 °F 73% 30.20 in 10.0 mi NW 3.5 mph - N/A   Clear
3:15 AM 21.2 °F 14.9 °F 14.0 °F 74% 30.21 in 10.0 mi NW 4.6 mph - N/A   Clear
3:35 AM 19.4 °F - 12.2 °F 74% 30.21 in 10.0 mi Calm Calm - N/A   Clear
3:55 AM 19.4 °F 12.8 °F 14.0 °F 80% 30.22 in 10.0 mi East 4.6 mph - N/A Snow Light Snow
4:15 AM 19.4 °F 14.3 °F 14.0 °F 80% 30.23 in 10.0 mi North 3.5 mph - N/A   Clear
4:35 AM 21.2 °F - 14.0 °F 74% 30.22 in 10.0 mi Calm Calm - N/A   Clear
4:55 AM 19.4 °F 11.5 °F 12.2 °F 74% 30.24 in 10.0 mi West 5.8 mph - N/A   Clear
5:15 AM 15.8 °F 10.2 °F 10.4 °F 79% 30.24 in 10.0 mi NNW 3.5 mph - N/A   Clear
5:35 AM 17.6 °F 10.7 °F 12.2 °F 79% 30.24 in 10.0 mi East 4.6 mph - N/A   Clear
5:55 AM 19.4 °F - 12.2 °F 74% 30.24 in 10.0 mi Calm Calm - N/A   Clear
6:15 AM 19.4 °F - 14.0 °F 80% 30.25 in 10.0 mi Calm Calm - N/A   Partly Cloudy
6:35 AM 19.4 °F - 12.2 °F 74% 30.25 in 10.0 mi Calm Calm - N/A   Partly Cloudy
6:55 AM 19.4 °F - 14.0 °F 80% 30.26 in 10.0 mi Calm Calm - N/A   Clear
7:15 AM 21.2 °F - 14.0 °F 74% 30.27 in 10.0 mi Calm Calm - N/A   Clear
7:35 AM 24.8 °F - 15.8 °F 69% 30.28 in 10.0 mi Calm Calm - N/A   Partly Cloudy
7:55 AM 26.6 °F - 15.8 °F 64% 30.28 in 10.0 mi Calm Calm - N/A   Clear
8:15 AM 28.4 °F - 17.6 °F 64% 30.28 in 10.0 mi Calm Calm - N/A   Partly Cloudy
8:35 AM 32.0 °F - 17.6 °F 55% 30.28 in 10.0 mi Calm Calm - N/A   Mostly Cloudy
8:55 AM 33.8 °F - 17.6 °F 52% 30.28 in 10.0 mi Calm Calm - N/A   Scattered Clouds
9:15 AM 37.4 °F - 15.8 °F 41% 30.29 in 10.0 mi Calm Calm - N/A   Clear
9:35 AM 39.2 °F 37.0 °F 15.8 °F 39% 30.29 in 10.0 mi ESE 3.5 mph - N/A   Clear
9:55 AM 39.2 °F 37.0 °F 17.6 °F 42% 30.29 in 10.0 mi SE 3.5 mph - N/A   Clear
10:15 AM 41.0 °F - 17.6 °F 39% 30.29 in 10.0 mi Calm Calm - N/A   Clear
10:35 AM 41.0 °F - 15.8 °F 36% 30.29 in 10.0 mi Calm Calm - N/A   Clear
10:55 AM 44.6 °F 42.2 °F 15.8 °F 31% 30.28 in 10.0 mi ESE 4.6 mph - N/A   Clear
11:15 AM 44.6 °F 43.1 °F 14.0 °F 29% 30.28 in 10.0 mi SE 3.5 mph - N/A   Clear
11:35 AM 46.4 °F 44.3 °F 14.0 °F 27% 30.26 in 10.0 mi SE 4.6 mph - N/A   Clear
11:55 AM 48.2 °F - 14.0 °F 25% 30.25 in 10.0 mi SE 5.8 mph - N/A   Clear
12:15 PM 48.2 °F - 14.0 °F 25% 30.25 in 10.0 mi East 4.6 mph - N/A   Clear
12:35 PM 50.0 °F - 14.0 °F 24% 30.25 in 10.0 mi SE 6.9 mph - N/A   Clear
12:55 PM 50.0 °F - 14.0 °F 24% 30.24 in 10.0 mi ESE 4.6 mph - N/A   Clear
1:15 PM 50.0 °F - 14.0 °F 24% 30.24 in 10.0 mi ESE 8.1 mph - N/A   Clear
1:35 PM 51.8 °F - 14.0 °F 22% 30.24 in 10.0 mi ESE 6.9 mph - N/A   Clear
1:55 PM 51.8 °F - 14.0 °F 22% 30.23 in 10.0 mi SE 6.9 mph - N/A   Clear
2:15 PM 51.8 °F - 14.0 °F 22% 30.23 in 10.0 mi SE 4.6 mph - N/A   Clear
2:35 PM 53.6 °F - 14.0 °F 21% 30.23 in 10.0 mi SE 5.8 mph - N/A   Clear
2:55 PM 53.6 °F - 14.0 °F 21% 30.23 in 10.0 mi South 3.5 mph - N/A   Clear
3:15 PM 53.6 °F - 14.0 °F 21% 30.23 in 10.0 mi Calm Calm - N/A   Clear
3:35 PM 53.6 °F - 14.0 °F 21% 30.23 in 10.0 mi SE 4.6 mph - N/A   Clear
3:55 PM 53.6 °F - 14.0 °F 21% 30.23 in 10.0 mi Calm Calm - N/A   Clear
4:15 PM 51.8 °F - 15.8 °F 24% 30.23 in 10.0 mi Calm Calm - N/A   Clear
4:35 PM 50.0 °F - 15.8 °F 26% 30.23 in 10.0 mi SE 3.5 mph - N/A   Clear
4:55 PM 50.0 °F - 15.8 °F 26% 30.24 in 10.0 mi SE 4.6 mph - N/A   Clear
5:15 PM 46.4 °F 43.5 °F 15.8 °F 29% 30.24 in 10.0 mi ESE 5.8 mph - N/A   Clear
5:35 PM 44.6 °F 42.2 °F 15.8 °F 31% 30.25 in 10.0 mi East 4.6 mph - N/A   Clear
5:55 PM 41.0 °F 38.0 °F 15.8 °F 36% 30.26 in 10.0 mi North 4.6 mph - N/A   Clear
6:15 PM 41.0 °F 39.0 °F 15.8 °F 36% 30.27 in 10.0 mi NNW 3.5 mph - N/A   Clear
6:35 PM 37.4 °F 32.8 °F 15.8 °F 41% 30.28 in 10.0 mi North 5.8 mph - N/A   Clear
6:55 PM 35.6 °F 30.7 °F 15.8 °F 44% 30.28 in 10.0 mi North 5.8 mph - N/A   Clear
7:15 PM 39.2 °F 35.9 °F 15.8 °F 39% 30.28 in 10.0 mi ESE 4.6 mph - N/A   Clear
7:35 PM 33.8 °F 29.6 °F 15.8 °F 48% 30.29 in 10.0 mi NW 4.6 mph - N/A   Clear
7:55 PM 33.8 °F 27.7 °F 15.8 °F 48% 30.29 in 10.0 mi North 6.9 mph - N/A   Clear
8:15 PM 33.8 °F 28.6 °F 15.8 °F 48% 30.30 in 10.0 mi North 5.8 mph - N/A   Clear
8:35 PM 33.8 °F 30.8 °F 15.8 °F 48% 30.30 in 10.0 mi North 3.5 mph - N/A   Clear
8:55 PM 32.0 °F - 15.8 °F 51% 30.31 in 10.0 mi Calm Calm - N/A   Clear
9:15 PM 30.2 °F 26.7 °F 15.8 °F 55% 30.32 in 10.0 mi NE 3.5 mph - N/A   Clear
9:35 PM 32.0 °F 28.7 °F 15.8 °F 51% 30.32 in 10.0 mi NNW 3.5 mph - N/A   Clear
9:55 PM 32.0 °F - 15.8 °F 51% 30.32 in 10.0 mi Calm Calm - N/A   Clear
10:15 PM 32.0 °F 27.5 °F 15.8 °F 51% 30.33 in 10.0 mi North 4.6 mph - N/A   Clear
10:35 PM 37.4 °F - 17.6 °F 45% 30.33 in 10.0 mi Calm Calm - N/A   Clear
10:55 PM 30.2 °F - 15.8 °F 55% 30.33 in 10.0 mi Calm Calm - N/A   Clear
11:15 PM 26.6 °F - 15.8 °F 64% 30.33 in 10.0 mi Calm Calm - N/A   Clear
11:35 PM 30.2 °F 25.4 °F 15.8 °F 55% 30.33 in 10.0 mi North 4.6 mph - N/A   Clear
11:55 PM 32.0 °F 25.6 °F 17.6 °F 55% 30.34 in 10.0 mi North 6.9 mph - N/A   Clear